Other Surface Observations
Issued by NWS

Home | Current Version | Previous Version | Text Only | Print | Product List | Glossary On
Versions: 1 2 3 4 5 6 7 8 9 10 11 12 13 14 15 16 17 18 19 20 21 22 23 24 25 26 27 28 29 30 31 32 33 34 35 36 37 38 39 40 41 42 43 44 45 46 47 48 49 50
926
SXUS52 KTAE 101618
OSOTAE
OSOTAE
North Florida/South Alabama/Southwest Georgia Weather Roundup
National Weather Service Tallahassee Florida
1100 AM EST WED FEB 10 2016

Note: "fair" indicates few or no clouds below 12,000 feet with no
significant weather and/or obstructions to visibility.

!FLZ017-115-028-034-025-101700
...North Florida...

CITY           SKY/WX    TMP DP  RH WIND       PRES   REMARKS
TALLAHASSEE    SUNNY     42  10  27 NW17      30.27S WCI  34
APALACHICOLA   SUNNY     45  16  31 N14       30.30S WCI  38
PERRY          SUNNY     44  14  29 NW14      30.27S WCI  37
CROSS CITY       N/A     49  13  23 NW15G24   30.26R WCI  43
JACKSONVILLE   SUNNY     43  16  33 W22G30    30.19R WCI  34
$$

!FLZ112-006-005-002-011-101700
...Florida Panhandle...

CITY           SKY/WX    TMP DP  RH WIND       PRES   REMARKS
MARIANNA       SUNNY     39  13  34 NW12      30.29S WCI  32
BONIFAY        FAIR      40  15  36 NW9       30.31S WCI  34
PANAMA CITY NW FAIR      42  15  33 W15       30.30S WCI  34
TYNDALL AFB    SUNNY     42  16  35 NW13      30.31S WCI  35
TYND DRONE APT FAIR      42  15  33 MISG      30.31S
DE FUNIAK SPR  FAIR      38  11  32 NW12      30.31S WCI  31
EGLIN AFB      MOSUNNY   42  11  28 N15G22    30.30F WCI  34
DESTIN         SUNNY     43  13  29 NW12      30.32F WCI  37
HURLBURT       SUNNY     42   9  25 NW14G20   30.31F WCI  35
CRESTVIEW      SUNNY     41  11  29 VRB7G17   30.33S WCI  36
PENSACOLA      SUNNY     44  14  29 NW10      30.33S WCI  39
$$

!ALZ063-066-101700
...South Alabama...

CITY           SKY/WX    TMP DP  RH WIND       PRES   REMARKS
DOTHAN         SUNNY     38  13  35 NW14      30.30F WCI  30
OZARK CAIRNS   SUNNY     38  13  36 NW10      30.27S WCI  31
FT RUCKER HELI SUNNY     39  12  33 W12       30.27S WCI  32
RUCKER HELI 3  FAIR      36  11  35 W13G20    30.28S WCI  27
RUCKER HELI 2  NOT AVBL
FLORALA APT    SUNNY     39  12  33 NW9       30.31S WCI  33
ANDALUSIA      SUNNY     43  13  29 NW13      30.29S WCI  36
TROY           SUNNY     38  13  35 NW13G23   30.28S WCI  30
EUFALA         FAIR      38  16  40 NW12G17   30.25S WCI  30
MOBILE         SUNNY     42  14  32 NW12      30.34F WCI  36
$$

!GAZ120>161-101700
...Southwest and South Central Georgia...

CITY           SKY/WX    TMP DP  RH WIND       PRES   REMARKS
THOMASVILLE    FAIR      37  19  48 NW9G18    30.26S WCI  31
BAINBRIDGE     SUNNY     37  16  41 W15       30.29S WCI  28
MOODY AFB      SUNNY     37  16  41 W14G21    30.22R WCI  29
VALDOSTA       SUNNY     39  16  39 NW9G17    30.24R WCI  33
MOULTRIE       SUNNY     36  18  48 NW13G21   30.25S WCI  27
BLAKELY        SUNNY     37  18  44 W12       30.28R WCI  30
ALBANY         SUNNY     37  12  35 W15G24    30.27S WCI  28
TIFTON         FAIR      35  18  50 NW14G23   30.23R WCI  25
FITZGERALD     FAIR      37  17  44 W13G18    30.23S WCI  29
CORDELE        FAIR      37  14  38 NW14G21   30.24R WCI  28
AMERICUS       FAIR      32  14  47 W17G24    30.24S WCI  21
HOMERVILLE     FAIR      39  25  56 NW21      30.22R WCI  29
$$

!GMZ750-755-770-775-101700
...Coastal and Buoy Obs...

STATION/POSITION TIME  TEMP    WIND        PRES    VSBY  WAVE
                       AIR SEA DIR/SP/G                  HT/PER
                 (UTC) (F)     (DEG/KT/KT) (MB)    (MI)  (FT/S)
KEATON BEACH     1600   41     300/ 14/ 17 1024.8R
CEDAR KEY        NOT AVBL
C TOWER          NOT AVBL
APALACHICOLA BUO 1550   52 67  330/ 19/ 23 1025.7R         9/ 9
PANAMA CITY BUOY 1550   51 68  340/ 17/ 23 1026.7R         8/ 8
MOBILE BUOY      NOT AVBL
ORANGE BCH AL BU 1550   42 65  320/ 10/ 14 1027.2R         2/ 3
$$




USA.gov is the U.S. government's official web portal to all federal, state and local government web resources and services.